Flag for USA

Past Weather in El Paso, Texas, USA — Yesterday and Last 2 Weeks

Now
91 °F

Scattered clouds.


Feels Like: 88 °F
Forecast: 103 / 78 °F
Wind: 3 mph from North

Location: El Paso International Airport

Current Time: Jul 5, 2020 at 12:19:48 pm

Latest Report: Jul 5, 2020 at 10:51 am


Visibility: 10 mi

Pressure: 29.78 "Hg (26.21 "Hg at 1142m altitude)

Humidity: 25%

Dew Point: 50 °F

Location of El PasoLocation

Past Weather in El Paso — Graph

°F

El Paso Temperature Yesterday

Maximum temperature yesterday: 102 °F (at 3:51 pm)
Minimum temperature yesterday: 78 °F (at 6:51 am)
Average temperature yesterday: 89 °F

High & Low Weather Summary for the Past Weeks

 TemperatureHumidityPressure
High105 °F (Jun 22, 4:51 pm)55% (Jun 25, 5:51 am)30.00 "Hg (Jun 25, 5:51 am)
Low70 °F (Jun 27, 5:51 am)6% (Jun 20, 1:51 pm)29.53 "Hg (Jun 28, 6:51 pm)
Average88 °F24%29.73 "Hg
* Reported Jun 20 10:51 am — Jul 5 10:51 am, El Paso. Weather by CustomWeather, © 2020

Note: Actual official high and low records may vary slightly from our data, if they occured in-between our weather recording intervals... More about our weather records

El Paso Weather History for the Previous 24 Hours

Scroll right to see more
 ConditionsComfort  
Time TempWeatherWind HumidityBarometerVisibility
10:51 am
Sun, Jul 5
91 °FScattered clouds.3 mph25%29.78 "Hg10 mi
9:51 am88 °FScattered clouds.6 mph28%29.78 "Hg10 mi
8:51 am86 °FBroken clouds.12 mph32%29.80 "Hg10 mi
7:51 am81 °FBroken clouds.10 mph38%29.79 "Hg10 mi
6:51 am81 °FBroken clouds.14 mph37%29.79 "Hg10 mi
5:51 am79 °FPartly cloudy.7 mph42%29.77 "Hg10 mi
4:51 am79 °FPassing clouds.8 mph44%29.76 "Hg10 mi
3:51 am79 °FPassing clouds.6 mph42%29.76 "Hg10 mi
2:51 am83 °FPassing clouds.10 mph37%29.75 "Hg10 mi
1:51 am83 °FPassing clouds.17 mph38%29.75 "Hg10 mi
12:51 am85 °FPassing clouds.20 mph32%29.75 "Hg10 mi
11:51 pm
Sat, Jul 4
87 °FPassing clouds.8 mph27%29.75 "Hg10 mi
10:51 pm88 °FPassing clouds.9 mph28%29.76 "Hg10 mi
9:51 pm90 °FPassing clouds.10 mph25%29.74 "Hg10 mi
8:51 pm91 °FPassing clouds.15 mph24%29.73 "Hg10 mi
7:51 pm92 °FPartly sunny.15 mph24%29.72 "Hg10 mi
6:51 pm91 °FPartly sunny.22 mph28%29.71 "Hg8 mi
5:51 pm99 °FPartly sunny.No wind15%29.68 "Hg10 mi
4:51 pm100 °FPartly sunny.6 mph15%29.68 "Hg10 mi
3:51 pm102 °FScattered clouds.7 mph15%29.71 "Hg10 mi
2:51 pm100 °FScattered clouds.6 mph17%29.74 "Hg10 mi
1:51 pm97 °FScattered clouds.3 mph21%29.79 "Hg10 mi
12:51 pm95 °FScattered clouds.6 mph23%29.81 "Hg10 mi
Weather by CustomWeather, © 2020

See weather overview